GW7254 Weather Reports


time (UTC)temp
F
wind
direction
speed
knots
gust
knots
rain 1hr
in
rain 24hr
in
rain mn
in
humidity
%
barometer
mb
20260902034358 61 75 0.0 0.0 0.00 0.00 0.00 73 1015.9
20260902033856 61 354 0.0 0.9 0.00 0.00 0.00 73 1016.0
20260902033351 61 342 0.0 0.0 0.00 0.00 0.00 73 1015.8
20260902032850 61 349 0.0 0.0 0.00 0.00 0.00 72 1016.0
20260902032351 62 79 0.0 0.9 0.00 0.00 0.00 72 1016.0
20260902031851 62 87 0.0 0.0 0.00 0.00 0.00 71 1015.6
20260902031348 62 94 0.0 0.0 0.00 0.00 0.00 70 1015.7
20260902030843 62 95 0.0 1.7 0.00 0.00 0.00 69 1015.5
20260902030337 62 58 0.0 0.9 0.00 0.00 0.00 69 1015.7
20260902025836 62 107 4.3 7.0 0.00 0.00 0.00 68 1015.4
20260902025332 62 177 0.0 1.7 0.00 0.00 0.00 67 1015.2
20260902024832 62 83 0.0 1.7 0.00 0.00 0.00 65 1015.4
20260902024328 63 86 0.9 2.6 0.00 0.00 0.00 64 1015.4
20260902023823 63 57 0.0 5.2 0.00 0.00 0.00 64 1015.6
20260902023318 63 112 0.0 0.0 0.00 0.00 0.00 63 1015.4
20260902022817 63 333 0.0 3.5 0.00 0.00 0.00 62 1015.3
20260902022312 63 23 0.0 1.7 0.00 0.00 0.00 62 1015.4
20260902021808 63 147 0.0 0.0 0.00 0.00 0.00 61 1015.3
20260902021303 64 153 0.0 1.7 0.00 0.00 0.00 61 1015.0
20260902020759 64 277 0.0 0.0 0.00 0.00 0.00 60 1015.3
20260902020255 65 111 0.9 2.6 0.00 0.00 0.00 58 1015.0
20260902015749 65 354 0.0 0.0 0.00 0.00 0.00 58 1015.3
20260902015246 65 80 0.0 0.9 0.00 0.00 0.00 57 1015.2
20260902014742 65 125 0.0 1.7 0.00 0.00 0.00 56 1014.8
20260902014238 66 301 0.0 0.0 0.00 0.00 0.00 55 1015.1
20260902013736 66 101 0.0 3.5 0.00 0.00 0.00 54 1015.0
20260902013232 67 88 0.0 7.8 0.00 0.00 0.00 53 1015.0
20260902012727 67 9 2.6 6.1 0.00 0.00 0.00 53 1014.9
20260902012223 67 67 1.7 6.1 0.00 0.00 0.00 53 1015.0
20260902011719 67 94 3.5 5.2 0.00 0.00 0.00 52 1014.8
20260902011218 69 128 3.5 5.2 0.00 0.00 0.00 51 1014.9
20260902010717 69 150 2.6 7.0 0.00 0.00 0.00 50 1014.8
20260902010214 69 122 0.9 6.1 0.00 0.00 0.00 50 1014.9
20260902005711 69 64 0.0 1.7 0.00 0.00 0.00 50 1014.9
20260902005208 69 209 0.0 1.7 0.00 0.00 0.00 52 1014.9
20260902004707 68 153 0.9 3.5 0.00 0.00 0.00 52 1014.6
20260902004202 69 75 0.9 3.5 0.00 0.00 0.00 50 1014.7
20260902003658 68 104 0.9 2.6 0.00 0.00 0.00 50 1014.7
20260902003153 70 90 0.9 5.2 0.00 0.00 0.00 49 1014.9
20260902002649 69 98 2.6 5.2 0.00 0.00 0.00 48 1014.9
20260902002149 69 20 1.7 2.6 0.00 0.00 0.00 48 1014.9
20260902001644 70 132 3.5 7.0 0.00 0.00 0.00 46 1015.0
20260902001143 70 145 0.9 5.2 0.00 0.00 0.00 46 1014.9
20260902000639 71 54 0.9 6.1 0.00 0.00 0.00 45 1014.8
20260902000134 71 67 0.0 7.8 0.00 0.00 0.00 45 1014.9
20260901235634 71 111 3.5 6.1 0.00 0.00 0.00 43 1014.6
20260901235129 70 93 0.9 6.1 0.00 0.00 0.00 45 1015.1
20260901234628 70 132 1.7 6.1 0.00 0.00 0.00 45 1015.0
20260901234123 72 94 4.3 6.1 0.00 0.00 0.00 44 1014.9
20260901233618 73 73 0.9 1.7 0.00 0.00 0.00 42 1014.9
20260901233114 72 309 3.5 7.8 0.00 0.00 0.00 42 1014.8
20260901232614 72 54 1.7 5.2 0.00 0.00 0.00 43 1015.0
20260901232109 72 122 0.0 3.5 0.00 0.00 0.00 43 1014.9
20260901231606 72 88 0.0 2.6 0.00 0.00 0.00 43 1015.0
20260901231102 71 128 1.7 2.6 0.00 0.00 0.00 43 1014.8
20260901230558 73 158 5.2 7.8 0.00 0.00 0.00 42 1014.8
20260901230057 74 64 0.9 2.6 0.00 0.00 0.00 41 1015.0
20260901225552 74 66 1.7 2.6 0.00 0.00 0.00 41 1014.9
20260901225052 72 13 0.0 3.5 0.00 0.00 0.00 43 1014.9
20260901224548 74 134 5.2 8.7 0.00 0.00 0.00 42 1015.0
20260901224044 73 133 0.9 2.6 0.00 0.00 0.00 42 1015.0
20260901223539 74 81 0.9 3.5 0.00 0.00 0.00 41 1014.8
20260901223035 74 129 0.9 1.7 0.00 0.00 0.00 41 1015.1
20260901222531 74 78 0.0 1.7 0.00 0.00 0.00 40 1015.1
20260901222026 73 123 0.0 3.5 0.00 0.00 0.00 42 1015.1
20260901221522 73 160 1.7 3.5 0.00 0.00 0.00 41 1015.1
20260901221018 73 86 0.0 7.0 0.00 0.00 0.00 43 1015.0
20260901220517 73 73 1.7 5.2 0.00 0.00 0.00 43 1015.1
20260901220016 75 93 0.0 3.5 0.00 0.00 0.00 40 1015.3
20260901215515 74 66 0.9 1.7 0.00 0.00 0.00 41 1015.3
20260901215015 74 35 0.9 12.2 0.00 0.00 0.00 41 1015.3
20260901214514 73 102 0.0 3.5 0.00 0.00 0.00 44 1015.2
20260901214008 73 104 1.7 5.2 0.00 0.00 0.00 43 1015.4
20260901213502 72 107 3.5 6.1 0.00 0.00 0.00 44 1015.3
20260901213001 73 126 0.9 3.5 0.00 0.00 0.00 43 1015.4
20260901212457 72 88 0.0 7.8 0.00 0.00 0.00 45 1015.4
20260901211953 74 161 3.5 6.1 0.00 0.00 0.00 42 1015.1
20260901211448 75 124 1.7 1.7 0.00 0.00 0.00 39 1015.3
20260901210944 75 86 0.9 5.2 0.00 0.00 0.00 39 1015.2
20260901210440 74 42 0.0 3.5 0.00 0.00 0.00 40 1015.3
20260901205936 75 89 0.0 3.5 0.00 0.00 0.00 38 1015.3
20260901205436 74 293 0.0 0.9 0.00 0.00 0.00 41 1015.1
20260901204931 73 98 0.0 0.9 0.00 0.00 0.00 42 1015.3
20260901204428 73 116 4.3 7.0 0.00 0.00 0.00 41 1015.0
20260901203927 73 210 0.0 5.2 0.00 0.00 0.00 43 1015.2
20260901203422 73 125 0.0 0.9 0.00 0.00 0.00 42 1015.3
20260901202918 73 255 0.0 2.6 0.00 0.00 0.00 41 1015.3
20260901202412 73 96 0.9 5.2 0.00 0.00 0.00 41 1015.5
20260901201908 72 49 0.0 0.0 0.00 0.00 0.00 42 1015.6
20260901201408 72 87 3.5 5.2 0.00 0.00 0.00 42 1015.6
20260901200908 71 147 0.9 2.6 0.00 0.00 0.00 44 1015.5
20260901200403 72 75 2.6 5.2 0.00 0.00 0.00 42 1015.7
20260901195902 73 354 0.0 0.9 0.00 0.00 0.00 42 1015.6
20260901195400 72 42 0.9 1.7 0.00 0.00 0.00 43 1015.6
20260901194856 71 325 0.0 0.0 0.00 0.00 0.00 43 1015.7
20260901194350 71 88 0.9 2.6 0.00 0.00 0.00 44 1015.7
20260901193847 71 75 0.9 1.7 0.00 0.00 0.00 43 1015.7
20260901193346 72 37 0.9 1.7 0.00 0.00 0.00 42 1015.8
20260901192846 73 47 0.0 1.7 0.00 0.00 0.00 40 1015.7
20260901192342 72 32 0.0 0.0 0.00 0.00 0.00 41 1015.8
20260901191837 72 215 0.0 0.0 0.00 0.00 0.00 42 1016.0
20260901191332 74 84 0.0 2.6 0.00 0.00 0.00 40 1016.0
20260901190829 73 79 0.0 0.0 0.00 0.00 0.00 42 1015.8
20260901190329 73 79 0.0 1.7 0.00 0.00 0.00 42 1016.0
20260901185827 73 51 0.9 3.5 0.00 0.00 0.00 41 1015.7
20260901185326 72 67 0.0 0.0 0.00 0.00 0.00 44 1016.0
20260901184822 69 313 0.0 0.0 0.00 0.00 0.00 47 1015.8
20260901184317 69 337 0.9 1.7 0.00 0.00 0.00 47 1015.8
20260901183813 69 89 0.9 0.9 0.00 0.00 0.00 49 1016.2
20260901183312 69 89 0.9 0.9 0.00 0.00 0.00 49 1016.0
20260901182809 67 149 0.0 1.7 0.00 0.00 0.00 50 1016.0
20260901182308 67 131 0.0 0.9 0.00 0.00 0.00 53 1015.8
20260901181803 67 85 0.0 2.6 0.00 0.00 0.00 52 1016.0
20260901181303 67 105 0.0 0.9 0.00 0.00 0.00 52 1016.0
20260901180757 67 116 0.9 1.7 0.00 0.00 0.00 53 1015.9
20260901180256 68 64 2.6 3.5 0.00 0.00 0.00 51 1016.1
20260901175755 67 93 2.6 5.2 0.00 0.00 0.00 50 1015.7
20260901175250 67 93 2.6 5.2 0.00 0.00 0.00 50 1016.0
20260901174745 67 87 0.0 0.9 0.00 0.00 0.00 53 1015.7
20260901174241 67 87 0.0 0.9 0.00 0.00 0.00 53 1015.5
20260901173737 67 96 0.0 0.0 0.00 0.00 0.00 55 1015.7
20260901173231 66 68 0.0 0.0 0.00 0.00 0.00 57 1015.7
20260901172728 68 116 1.7 2.6 0.00 0.00 0.00 54 1015.8
20260901172226 68 168 0.0 0.0 0.00 0.00 0.00 54 1015.6
20260901171725 68 168 0.0 0.0 0.00 0.00 0.00 54 1015.7
20260901171224 65 54 0.0 0.0 0.00 0.00 0.00 59 1015.6
20260901170723 65 66 0.0 0.0 0.00 0.00 0.00 59 1015.6
20260901170218 64 105 0.0 0.0 0.00 0.00 0.00 62 1015.4
20260901165717 64 140 0.0 0.9 0.00 0.00 0.00 63 1015.6
20260901165212 64 76 0.9 1.7 0.00 0.00 0.00 63 1015.6
20260901164708 64 84 0.0 0.9 0.00 0.00 0.00 63 1015.3
20260901164209 64 121 0.0 0.0 0.00 0.00 0.00 64 1015.5
20260901163704 64 84 3.5 3.5 0.00 0.00 0.00 64 1015.4
20260901163203 64 91 0.0 0.9 0.00 0.00 0.00 64 1015.4
20260901162659 64 95 0.0 0.9 0.00 0.00 0.00 65 1015.3
20260901162158 63 78 0.0 0.9 0.00 0.00 0.00 66 1015.5
20260901161657 63 43 0.0 0.0 0.00 0.00 0.00 68 1015.3
20260901161156 62 325 0.0 0.9 0.00 0.00 0.00 69 1015.3
20260901160653 62 80 0.0 0.0 0.00 0.00 0.00 71 1015.5
20260901160148 62 90 0.0 0.9 0.00 0.00 0.00 72 1015.3
20260901155647 62 101 0.0 0.9 0.00 0.00 0.00 72 1015.4
20260901155143 62 76 0.0 0.9 0.00 0.00 0.00 71 1014.9
20260901154638 62 90 0.0 0.9 0.00 0.00 0.00 71 1015.0
20260901154132 62 45 0.0 0.9 0.00 0.00 0.00 73 1015.0
20260901153628 62 320 0.0 3.5 0.00 0.00 0.00 73 1014.8
20260901153127 61 2 0.0 0.0 0.00 0.00 0.00 73 1015.0
20260901152622 61 2 0.0 0.0 0.00 0.00 0.00 73 1014.9
20260901152120 61 8 0.0 0.0 0.00 0.00 0.00 73 1014.9
20260901151617 61 8 0.0 0.0 0.00 0.00 0.00 74 1015.0
20260901151116 61 8 0.0 0.0 0.00 0.00 0.00 75 1014.9
20260901150615 61 8 0.0 0.0 0.00 0.00 0.00 75 1014.8
20260901150114 61 8 0.0 0.0 0.00 0.00 0.00 75 1014.6
20260901145612 61 7 0.0 0.0 0.00 0.00 0.00 75 1014.7
20260901145112 60 12 0.0 0.0 0.00 0.00 0.00 75 1014.7
20260901144607 60 12 0.0 0.0 0.00 0.00 0.00 75 1014.7
20260901144102 60 12 0.0 0.0 0.00 0.00 0.00 75 1014.4
20260901143558 60 2 0.0 0.0 0.00 0.00 0.00 76 1014.5
20260901143054 60 3 0.0 0.0 0.00 0.00 0.00 76 1014.3
20260901142550 60 55 0.0 0.9 0.00 0.00 0.00 76 1014.2
20260901142049 60 12 0.0 0.0 0.00 0.00 0.00 75 1014.3
20260901141544 60 18 0.0 0.0 0.00 0.00 0.00 75 1014.1
20260901141039 60 82 0.9 0.9 0.00 0.00 0.00 75 1014.1
20260901140537 60 81 0.0 0.0 0.00 0.00 0.00 75 1014.1
20260901140032 60 81 0.0 0.0 0.00 0.00 0.00 75 1013.9
20260901135531 60 81 0.0 0.0 0.00 0.00 0.00 75 1013.8
20260901135027 60 80 0.0 0.9 0.00 0.00 0.00 75 1014.0
20260901134523 60 326 0.0 0.0 0.00 0.00 0.00 76 1013.9
20260901134023 60 318 0.0 0.0 0.00 0.00 0.00 76 1013.8
20260901133521 60 317 0.0 0.0 0.00 0.00 0.00 76 1013.5
20260901133020 60 302 0.0 0.0 0.00 0.00 0.00 76 1013.5
20260901132515 60 302 0.0 0.0 0.00 0.00 0.00 76 1013.6
20260901132015 60 300 0.0 0.0 0.00 0.00 0.00 76 1013.8
20260901131515 60 319 0.0 0.0 0.00 0.00 0.00 76 1013.7
20260901131011 60 319 0.0 0.0 0.00 0.00 0.00 76 1013.6
20260901130511 60 311 0.0 0.0 0.00 0.00 0.00 76 1013.3
20260901130009 60 311 0.0 0.0 0.00 0.00 0.00 76 1013.4
20260901125508 60 314 0.0 0.0 0.00 0.00 0.00 76 1013.5
20260901125008 60 314 0.0 0.0 0.00 0.00 0.00 76 1013.4
20260901124504 60 314 0.0 0.0 0.00 0.00 0.00 76 1013.4
20260901123958 60 314 0.0 0.0 0.00 0.00 0.00 75 1013.5
20260901123453 60 314 0.0 0.0 0.00 0.00 0.00 76 1013.5
20260901122951 60 315 0.0 0.0 0.00 0.00 0.00 76 1013.3
20260901122451 60 37 0.0 0.0 0.00 0.00 0.00 76 1013.4
20260901121950 60 37 0.0 0.0 0.00 0.00 0.00 76 1013.1
20260901121445 60 37 0.0 0.0 0.00 0.00 0.00 75 1013.5
20260901120941 60 41 0.0 0.0 0.00 0.00 0.00 75 1013.1
20260901120440 59 129 0.0 0.0 0.00 0.00 0.00 76 1013.1
20260901115936 60 106 0.0 0.0 0.00 0.00 0.00 75 1013.2
20260901115436 60 105 0.0 0.0 0.00 0.00 0.00 75 1013.3
20260901114934 60 105 0.0 0.0 0.00 0.00 0.00 75 1013.3
20260901114429 60 95 0.0 0.0 0.00 0.00 0.00 74 1013.4
20260901113927 60 96 0.0 0.0 0.00 0.00 0.00 73 1013.6
20260901113426 60 119 0.0 2.6 0.00 0.00 0.00 73 1013.5
20260901112922 60 75 0.0 0.0 0.00 0.00 0.00 72 1013.6
20260901112417 60 41 0.0 0.0 0.00 0.00 0.00 72 1013.4
20260901111912 60 41 0.0 0.0 0.00 0.00 0.00 72 1013.6
20260901111410 60 42 0.0 0.0 0.00 0.00 0.00 72 1013.4
20260901110909 60 70 0.0 0.0 0.00 0.00 0.00 71 1013.6
20260901110405 60 91 0.0 0.0 0.00 0.00 0.00 71 1013.4
20260901105901 60 90 0.0 1.7 0.00 0.00 0.00 71 1013.5
20260901105356 60 290 0.0 0.0 0.00 0.00 0.00 72 1013.1
20260901104852 60 202 0.0 0.0 0.00 0.00 0.00 71 1013.6
20260901104347 60 213 0.0 0.0 0.00 0.00 0.00 71 1013.3
20260901103843 60 222 0.0 0.0 0.00 0.00 0.00 71 1013.3
20260901103342 60 235 0.0 0.0 0.00 0.00 0.00 71 1013.2
20260901102838 60 236 0.0 0.0 0.00 0.00 0.00 72 1013.3
20260901102337 59 235 0.0 0.0 0.00 0.00 0.00 72 1013.3
20260901101833 59 232 0.0 0.0 0.00 0.00 0.00 72 1013.1
20260901101333 59 253 0.0 0.0 0.00 0.00 0.00 72 1013.1
20260901100832 59 253 0.0 0.0 0.00 0.00 0.00 73 1013.4
20260901100327 59 100 0.0 0.0 0.00 0.00 0.00 73 1013.2
20260901095826 60 98 0.0 0.0 0.00 0.00 0.00 72 1013.1
20260901095324 60 98 0.0 0.0 0.00 0.00 0.00 72 1013.3
20260901094818 60 141 0.0 0.0 0.00 0.00 0.00 72 1013.2
20260901094313 60 141 0.0 0.0 0.00 0.00 0.00 72 1013.2
20260901093808 60 196 0.0 0.0 0.00 0.00 0.00 72 1013.3
20260901093307 60 202 0.0 0.0 0.00 0.00 0.00 71 1013.5
20260901092803 60 202 0.0 0.0 0.00 0.00 0.00 71 1013.3
20260901092259 60 289 0.0 0.0 0.00 0.00 0.00 72 1013.3
20260901091754 60 276 0.0 0.0 0.00 0.00 0.00 72 1013.5
20260901091250 59 288 0.0 0.0 0.00 0.00 0.00 72 1013.5
20260901090749 59 294 0.0 0.0 0.00 0.00 0.00 72 1013.4
20260901090245 59 300 0.0 0.0 0.00 0.00 0.00 73 1013.3
20260901085741 58 266 0.0 0.0 0.00 0.00 0.00 74 1013.7
20260901085236 58 266 0.0 0.0 0.00 0.00 0.00 74 1013.3
20260901084732 58 288 0.0 0.0 0.00 0.00 0.00 74 1013.4
20260901084229 58 287 0.0 0.0 0.00 0.00 0.00 73 1013.4
20260901083728 58 286 0.0 0.0 0.00 0.00 0.00 73 1013.3
20260901083228 58 72 0.0 0.0 0.00 0.00 0.00 73 1013.5
20260901082727 58 71 0.0 0.0 0.00 0.00 0.00 73 1013.2
20260901082222 58 70 0.0 0.9 0.00 0.00 0.00 73 1013.5
20260901081718 58 65 0.0 0.9 0.00 0.00 0.00 74 1013.2
20260901081217 58 259 0.0 0.0 0.00 0.00 0.00 74 1013.4
20260901080713 58 266 0.0 0.0 0.00 0.00 0.00 73 1013.3
20260901080211 58 213 0.0 0.0 0.00 0.00 0.00 73 1013.3
20260901075711 58 212 0.0 0.0 0.00 0.00 0.00 73 1013.2
20260901075211 58 129 0.0 0.0 0.00 0.00 0.00 74 1013.2
20260901074706 58 62 0.0 0.0 0.00 0.00 0.00 73 1013.3
20260901074201 58 152 0.0 0.0 0.00 0.00 0.00 73 1013.1
20260901073657 58 227 0.0 0.0 0.00 0.00 0.00 73 1013.4
20260901073153 58 194 0.0 0.0 0.00 0.00 0.00 73 1013.3
20260901072648 58 83 0.0 0.0 0.00 0.00 0.00 74 1013.2
20260901072142 58 321 0.0 0.0 0.00 0.00 0.00 74 1013.1
20260901071637 58 322 0.0 0.0 0.00 0.00 0.00 74 1013.3
20260901071136 58 317 0.0 0.0 0.00 0.00 0.00 74 1013.2
20260901070630 58 317 0.0 0.0 0.00 0.00 0.00 74 1013.4
20260901070126 58 271 0.0 0.0 0.00 0.00 0.00 74 1013.3
20260901065620 58 274 0.0 0.0 0.00 0.00 0.00 75 1013.3
20260901065120 58 268 0.0 0.0 0.00 0.00 0.00 74 1013.4
20260901064618 58 88 0.0 0.0 0.00 0.00 0.00 74 1013.2
20260901064114 58 109 0.0 0.0 0.00 0.00 0.00 74 1013.2
20260901063610 58 118 0.0 0.0 0.00 0.00 0.00 73 1013.1
20260901063106 58 86 0.0 0.0 0.00 0.00 0.00 73 1013.0
20260901062601 59 91 0.0 0.0 0.00 0.00 0.00 72 1013.1
20260901062057 59 100 0.0 0.0 0.00 0.00 0.00 73 1013.4
20260901061554 59 100 0.9 1.7 0.00 0.00 0.00 72 1013.4
20260901061049 59 97 0.0 0.0 0.00 0.00 0.00 72 1013.4
20260901060548 60 97 0.0 0.9 0.00 0.00 0.00 72 1013.5
20260901060044 59 101 0.9 2.6 0.00 0.00 0.00 72 1013.4
20260901055539 60 62 0.0 0.0 0.00 0.00 0.00 71 1013.5
20260901055036 59 305 0.0 3.5 0.00 0.00 0.00 71 1013.4
20260901054532 59 162 0.9 2.6 0.00 0.00 0.00 72 1013.7
20260901054028 59 129 0.0 0.0 0.00 0.00 0.00 72 1013.4
20260901053524 59 149 0.0 0.0 0.00 0.00 0.00 73 1013.4
20260901053020 58 90 0.0 0.9 0.00 0.00 0.00 73 1013.6
20260901052520 58 303 0.0 0.0 0.00 0.00 0.00 74 1013.4
20260901052020 58 303 0.0 0.0 0.00 0.00 0.00 74 1013.4
20260901051515 58 303 0.0 0.0 0.00 0.00 0.00 74 1013.4
20260901051013 58 5 0.0 0.0 0.00 0.00 0.00 75 1013.4
20260901050509 58 298 0.0 0.0 0.00 0.00 0.00 75 1013.4
20260901050004 58 298 0.0 0.0 0.00 0.00 0.00 74 1013.4
20260901045500 58 298 0.0 0.0 0.00 0.00 0.00 74 1013.3
20260901044959 58 298 0.0 0.0 0.00 0.00 0.00 74 1013.6
20260901044455 58 298 0.0 0.0 0.00 0.00 0.00 73 1013.3
20260901043951 58 298 0.0 0.0 0.00 0.00 0.00 73 1013.4
20260901043447 58 220 0.0 0.0 0.00 0.00 0.00 74 1013.3
20260901042947 59 220 0.0 0.0 0.00 0.00 0.00 73 1013.3
20260901042447 59 123 0.0 0.0 0.00 0.00 0.00 73 1013.3
20260901041942 59 122 0.0 0.0 0.00 0.00 0.00 73 1013.0
20260901041437 59 352 0.0 1.7 0.00 0.00 0.00 73 1013.1
20260901040937 59 184 0.0 0.0 0.00 0.00 0.00 73 1013.2
20260901040432 59 98 0.0 0.0 0.00 0.00 0.00 73 1013.3
20260901035931 59 112 0.0 0.0 0.00 0.00 0.00 73 1013.1
20260901035430 59 112 0.0 0.0 0.00 0.00 0.00 73 1013.1
20260901034928 59 103 0.0 1.7 0.00 0.00 0.00 73 1013.0